Regional Weather Roundup
Issued by NWS

Home | Current Version | Previous Version | Graphics & Text | Print | Product List | Glossary On
Versions: 1 2 3 4 5 6 7 8 9 10 11 12 13 14 15 16 17 18 19 20 21 22 23 24 25 26 27 28 29 30 31 32 33 34 35 36 37 38 39 40 41 42 43 44 45 46 47 48 49 50
000
ASUS43 KLSX 230207
RWRMO

WEATHER SUMMARY FOR MISSOURI
NATIONAL WEATHER SERVICE SPRINGFIELD MO
900 PM CDT FRI JUL 22 2016

NOTE: "FAIR" INDICATES FEW OR NO CLOUDS BELOW 12,000 FEET WITH NO
       SIGNIFICANT WEATHER AND/OR OBSTRUCTIONS TO VISIBILITY.
       CURRENT SKY AND/OR WEATHER CONDITIONS ARE NOT AVAILABLE FOR
       CHILLICOTHE AND FARMINGTON.

MOZ001>031-035>038-043-044-053-054-230300-
...NORTHERN AND WESTERN MISSOURI...

CITY           SKY/WX    TMP DP  RH WIND       PRES   REMARKS
KANSAS CTY INT MOCLDY    88  77  69 SE12      29.94F HX 100
KANSAS C DTWN  CLEAR     92  75  57 SE10G17   29.93F HX 103
LEE`S SUMMIT   CLEAR     88  76  67 SE9       29.97F HX  99
ST JOSEPH      PTCLDY    88  77  69 SE12      29.90F HX 100
CHILLICOTHE      N/A     85  78  80 CALM      29.97S HX  96
KIRKSVILLE     CLEAR     80  76  87 CALM      30.00F

$$
MOZ066>068-077>081-088>096-101>105-230300-
...SOUTHWEST MISSOURI...

CITY           SKY/WX    TMP DP  RH WIND       PRES   REMARKS
SPRINGFIELD    CLEAR     85  72  65 S5        30.02S HX  91
JOPLIN         CLEAR     87  73  62 SE7       29.99S HX  94
BRANSON        PTCLDY    84  77  79 S5        30.05R HX  94

$$
MOZ032>034-039>042-045>050-055>058-069>072-230300-
...CENTRAL MISSOURI...

CITY           SKY/WX    TMP DP  RH WIND       PRES   REMARKS
COLUMBIA       CLEAR     83  78  85 SE6       30.01S HX  93
JEFFERSON CITY CLEAR     82  78  88 SE5       29.99R HX  91
ROLLA          CLEAR     80  77  90 E5        30.03R
SEDALIA        CLEAR     84  77  79 S3        30.01S HX  94
WHITEMAN AFB   PTCLDY    84  79  83 S6        29.97S HX  96
OSAGE BEACH    CLEAR     83  79  88 E3        30.02R HX  94

$$
MOZ051-052-059>065-230300-
...EAST CENTRAL MISSOURI...

CITY           SKY/WX    TMP DP  RH WIND       PRES   REMARKS
ST LOUIS INTL  CLOUDY    85  69  58 CALM      30.02S
SPIRIT OF STL  CLOUDY    79  76  90 CALM      30.00S
ST CHARLES     CLOUDY    80  78  94 NE3       30.00S

$$
MOZ072>076-082>087-097>100-106>115-230300-
...SOUTH CENTRAL AND SOUTHEAST MISSOURI...

CITY           SKY/WX    TMP DP  RH WIND       PRES   REMARKS
CAPE GIRARDEAU CLOUDY    81  72  74 NE3       30.00R
FARMINGTON     MOCLDY    77  72  84 CALM      30.04R
POPLAR BLUFF   CLOUDY    86  79  79 NE5       29.99R HX  99
WEST PLAINS    CLOUDY    87  74  64 CALM      30.06S HX  95

$$


USA.gov is the U.S. government's official web portal to all federal, state and local government web resources and services.